User: anonymous   Login
Location: Berbisdorf
(50.7638°N, 12.9442°E)
Time: 12:47:15
(UTC+00:00)
Language:

STARLINK-1317 - Orbit

View from above orbital plane
View from above orbital plane
View from above satellite
View from above satellite

Ground track
Ground track

The orbit data is extracted from the following two-line orbital elements,

1 45365C 20019F   21132.09445381 -.00003567  00000-0 -24436-3 0  1322
2 45365  52.9969 139.2070 0000862  52.2296 342.4445 15.05577906    11
Epoch (UTC): 12 May 2021 02:16:00
Eccentricity: 0.0000862
inclination: 52.9969°
perigee height: 549 km
apogee height: 550 km
right ascension of ascending node: 139.2070°
argument of perigee: 52.2296°
revolutions per day: 15.05577906
mean anomaly at epoch: 342.4445°
orbit number at epoch: 1

The dashed part of the orbit path shows where the satellite is in the earth's shadow,  

DLR